Home   Weather   Paris   Past weeks

Flag for France Past Weather in Paris, Île-de-France, France — Yesterday and Last 2 Weeks

Now
61 °F

Overcast.


Feels Like: 61 °F
Forecast: 57 / 75 °F
Wind: 5 mph from Southwest

Location: Villacoublay

Current Time: Sep 28, 2016 at 8:56:32 AM

Latest Report: Sep 28, 2016 at 8:00 AM


Visibility: N/A

Pressure: 30.36 "Hg

Humidity: 83%

Dew Point: 55 °F

Location of ParisLocation

Past Weather in Paris — Graph

°F

Paris Temperature Yesterday

Maximum temperature yesterday: 73 °F (at 4:00 PM)
Minimum temperature yesterday: 54 °F (at 7:00 AM)
Average temperature yesterday: 63 °F

High & Low Weather Summary for the Past Weeks

 TemperatureHumidityPressure
High90 °F (Sep 13, 4:30 PM)100% (Sep 15, 6:30 AM)30.36 "Hg (Sep 15, 6:30 AM)
Low50 °F (Sep 21, 4:30 AM)31% (Sep 13, 4:30 PM)29.74 "Hg (Sep 13, 8:30 PM)
Average63 °F74%30.08 "Hg
* Reported Sep 13 7:00 AM — Sep 28 7:30 AM, Paris, Weather by CustomWeather, © 2016

Note: Actual official high and low records may vary slightly from our data, if they occured in-between our weather recording intervals... More about our weather records

Advertising

Paris Weather History for the Previous 24 Hours

Scroll right to see more
 ConditionsComfort  
Time TempWeatherWind HumidityBarometerVisibility
7:30 AM
Wed, Sep 28
61 °FOvercast.5 mph83%30.36 "HgN/A
7:00 AM61 °FOvercast.3 mph83%30.36 "HgN/A
6:30 AM61 °FOvercast.3 mph83%30.36 "HgN/A
6:00 AM61 °FOvercast.3 mph77%30.36 "HgN/A
5:30 AM61 °FOvercast.3 mph77%30.36 "HgN/A
5:00 AM61 °FOvercast.5 mph77%30.36 "HgN/A
4:30 AM61 °FOvercast.3 mph77%30.36 "HgN/A
4:00 AM61 °FOvercast.3 mph77%30.36 "HgN/A
3:30 AM61 °FPassing clouds.3 mph77%30.36 "HgN/A
3:00 AM63 °FPassing clouds.3 mph73%30.36 "HgN/A
2:30 AM63 °FOvercast.3 mph73%30.36 "HgN/A
2:00 AM63 °FMostly cloudy.5 mph68%30.36 "HgN/A
1:30 AM63 °FOvercast.3 mph68%30.36 "HgN/A
1:00 AM63 °FClear.3 mph64%30.36 "Hg10 mi
12:30 AM63 °FClear.3 mph64%30.36 "Hg10 mi
12:00 AM63 °FClear.2 mph59%30.36 "Hg10 mi
11:30 PM
Tue, Sep 27
63 °FClear.3 mph59%30.36 "Hg10 mi
11:00 PM63 °FClear.3 mph59%30.36 "Hg10 mi
10:30 PM63 °FClear.2 mph59%30.36 "Hg10 mi
10:00 PM64 °FPassing clouds.3 mph56%30.33 "HgN/A
9:30 PM64 °FClear.6 mph56%30.33 "Hg10 mi
9:00 PM64 °FClear.7 mph60%30.33 "Hg10 mi
8:30 PM66 °FClear.5 mph52%30.33 "Hg10 mi
8:00 PM68 °FClear.3 mph49%30.30 "HgN/A
7:30 PM68 °FSunny.3 mph46%30.30 "Hg10 mi
7:00 PM70 °FPassing clouds.3 mph43%30.30 "HgN/A
6:30 PM72 °FSunny.3 mph41%30.30 "Hg10 mi
6:00 PM72 °FPassing clouds.7 mph41%30.30 "HgN/A
5:30 PM73 °FPassing clouds.7 mph41%30.30 "HgN/A
5:00 PM73 °FPassing clouds.5 mph41%30.30 "HgN/A
4:30 PM72 °FPassing clouds.7 mph44%30.30 "HgN/A
4:00 PM73 °FPassing clouds.7 mph41%30.30 "HgN/A
3:30 PM72 °FPassing clouds.7 mph47%30.30 "HgN/A
3:00 PM72 °FSunny.8 mph47%30.30 "HgN/A
2:30 PM72 °FPassing clouds.8 mph44%30.30 "HgN/A
2:00 PM70 °FPassing clouds.7 mph46%30.30 "HgN/A
1:30 PM70 °FPassing clouds.7 mph46%30.33 "HgN/A
1:00 PM68 °FPassing clouds.6 mph53%30.30 "HgN/A
12:30 PM68 °FPassing clouds.6 mph49%30.33 "HgN/A
12:00 PM66 °FPassing clouds.7 mph52%30.33 "HgN/A
11:30 AM64 °FSunny.8 mph52%30.33 "Hg10 mi
11:00 AM63 °FPassing clouds.7 mph59%30.30 "HgN/A
10:30 AM61 °FPassing clouds.5 mph63%30.30 "HgN/A
10:00 AM59 °FPassing clouds.5 mph72%30.30 "HgN/A
9:30 AM57 °FSunny.6 mph72%30.30 "Hg10 mi
9:00 AM55 °FPassing clouds.5 mph82%30.30 "HgN/A
8:30 AM54 °FSunny.3 mph88%30.27 "Hg10 mi
8:00 AM54 °FSunny.5 mph82%30.27 "Hg10 mi
Weather by CustomWeather, © 2016

See weather overviewHow to use our weather pages